[[[{"header":{"parameterUnit":"kt","parameterCategory":2,"dx":1,"dy":1,"la1":30.253999710083008,"la2":30.299108505249023,"lo1":-89.0895004272461,"lo2":-89.04439544677734,"nx":28,"ny":28,"refTime":"2022-10-06T21:00:00:Z","depth":0,"parameterNumber":1,"parameterNumberName":"U-component_of_WINDS"},"data":[-5.8038,-5.8208,-5.8208,-5.8403,-5.8435,-5.8569,-5.8617,-5.8678,-5.8727,-5.8886,-5.8977,-5.8994,-5.9043,-5.9152,-5.9251,-5.9257,-5.9301,-5.9361,-5.9358,-5.9087,-5.905,-5.9014,-5.8975,-5.9369,-5.937,-5.964,-5.9642,-5.9644,-5.7838,-5.7872,-5.7974,-5.8074,-5.8162,-5.8103,-5.8178,-5.8256,-5.8377,-5.8438,-5.8528,-5.8668,-5.8778,-5.8808,-5.8914,-5.8995,-5.8975,-5.9024,-5.9021,-5.903,-5.8739,-5.8697,-5.9038,-5.9038,-5.9038,-5.9038,-5.9038,-5.9038,-5.7475,-5.7577,-5.7637,-5.7749,-5.7798,-5.7865,-5.7963,-5.7981,-5.8082,-5.8194,-5.8173,-5.831,-5.8372,-5.85,-5.8543,-5.8651,-5.8596,-5.8651,-5.8666,-5.8681,-5.8699,-5.8314,-5.8668,-5.8667,-5.8666,-5.8665,-5.8664,0,-5.721,-5.7203,-5.7302,-5.7401,-5.7482,-5.7558,-5.7629,-5.7689,-5.7674,-5.7758,-5.788,-5.795,-5.8088,-5.8204,-5.8303,-5.8337,-5.8289,-5.8282,-5.832,-5.8336,-5.8335,-5.8341,-5.7871,-5.8273,-5.827,-5.8267,-5.8265,-5.8264,-5.6848,-5.6966,-5.7029,-5.7098,-5.7137,-5.7249,-5.7316,-5.7293,-5.7366,-5.7449,-5.7541,-5.7654,-5.7746,-5.7941,-5.7963,-5.8067,-5.8045,-5.8199,-5.8061,-5.8068,-5.8053,-5.8048,-5.8061,-5.8228,-5.8233,-5.8237,-5.824,0,-5.6645,-5.6644,-5.6827,-5.6878,-5.6894,-5.7019,-5.7063,-5.7164,-5.7171,-5.7312,-5.7343,-5.7356,-5.7476,-5.7473,-5.7609,-5.7604,-5.7814,-5.7787,-5.7792,-5.7788,-5.7929,-5.7917,-5.8378,-5.8438,-5.8025,-5.8029,-5.8032,0,-5.6338,-5.6494,-5.6484,-5.6591,-5.6763,-5.6737,-5.6909,-5.6933,-5.6985,-5.7095,-5.7037,-5.7142,-5.7121,-5.7226,-5.7219,-5.7388,-5.7413,-5.7421,-5.7418,-5.7429,-5.7429,-5.7471,-5.7455,-5.7402,-5.74,-5.7398,-5.7396,0,-5.6024,-5.62,-5.6372,-5.6413,-5.6483,-5.6565,-5.6598,-5.6656,-5.6723,-5.6807,-5.6851,-5.6951,-5.7007,-5.7086,-5.7077,-5.6984,-5.7283,-5.7153,-5.7292,-5.7292,-5.7362,-5.7359,-5.7763,-5.7393,-5.7392,-5.7391,-5.7391,0,-5.5778,-5.5863,-5.6112,-5.6169,-5.6217,-5.633,-5.6428,-5.6524,-5.659,-5.6593,-5.6659,-5.6622,-5.6767,-5.6639,-5.684,-5.6721,-5.678,-5.68,-5.681,-5.6827,-5.6685,-5.6919,-5.73,-5.7342,-5.6837,-5.6832,-5.6828,0,-5.542,-5.5671,-5.5651,-5.5888,-5.6004,-5.5931,-5.6056,-5.6117,-5.6131,-5.6231,-5.6246,-5.6361,-5.6264,-5.6301,-5.64,-5.6421,-5.6575,-5.64,-5.6549,-5.6555,-5.6538,-5.6888,-5.6948,-5.7215,-5.6769,-5.6775,-5.6779,0,-5.5144,-5.5228,-5.5272,-5.5317,-5.5392,-5.5489,-5.5632,-5.574,-5.5808,-5.5881,-5.6003,-5.6162,-5.6097,-5.6157,-5.6137,-5.6241,-5.647,-5.6158,-5.6159,-5.6217,-5.6737,-5.6794,-5.6839,-5.6434,-5.6441,-5.6447,-5.6732,0,-5.4779,-5.4904,-5.502,-5.5123,-5.5196,-5.5343,-5.5341,-5.5418,-5.5391,-5.5403,-5.558,-5.5629,-5.5741,-5.5789,-5.5765,-5.6002,-5.5963,-5.5892,-5.5771,-5.5998,-5.6093,-5.6131,-5.563,-5.5626,-5.5623,-5.5621,0,0,-5.444,-5.4619,-5.4592,-5.4731,-5.4792,-5.4715,-5.4874,-5.4924,-5.5028,-5.5073,-5.5003,-5.5238,-5.5282,-5.5497,-5.5568,-5.5612,-5.5655,-5.5576,-5.5889,-5.5919,-5.5947,-5.6048,-5.6087,-5.5615,-5.5614,-5.5613,-5.5612,0,-5.4307,-5.4351,-5.4507,-5.4557,-5.4631,-5.4636,-5.4673,-5.4734,-5.4749,-5.4921,-5.4858,-5.4963,-5.5151,-5.5207,-5.526,-5.5548,-5.5497,-5.5582,-5.5739,-5.5858,-5.5892,-5.5922,-5.6028,-5.6066,-5.5605,-5.5605,-5.5606,0,-5.4038,-5.4082,-5.4156,-5.4289,-5.4337,-5.4458,-5.4328,-5.4461,-5.455,-5.4463,-5.4635,-5.4663,-5.4737,-5.4939,-5.503,-5.4971,-5.5353,-5.5231,-5.525,-5.5262,-5.5377,-5.5418,-5.5454,-5.4977,-5.4974,-5.4973,0,0,-5.3924,-5.4039,-5.408,-5.426,-5.4295,-5.4304,-5.4367,-5.4348,-5.4415,-5.4442,-5.4477,-5.4545,-5.4654,-5.4727,-5.4829,-5.5051,-5.5066,-5.5154,-5.5183,-5.5208,-5.5232,-5.5354,-5.5394,-5.4964,-5.4964,-5.4964,0,0,-5.387,-5.3925,-5.3886,-5.4094,-5.4159,-5.4213,-5.4324,-5.4278,-5.437,-5.4353,-5.4328,-5.4345,-5.4534,-5.4564,-5.4454,-5.4786,-5.4665,-5.4692,-5.476,-5.4798,-5.4827,-5.4818,-5.4331,0,0,0,0,0,-5.3734,-5.3917,-5.3882,-5.3916,-5.4085,-5.4232,-5.4254,-5.4237,-5.4151,-5.424,-5.4262,-5.4201,-5.4499,-5.4401,-5.4436,-5.4561,-5.4858,-5.4877,-5.4895,-5.5036,-5.5075,-5.5108,0,0,0,0,0,0,-5.3747,-5.379,-5.3877,-5.3938,-5.3976,-5.4225,-5.4078,-5.4078,-5.4142,-5.4128,-5.4199,-5.4203,-5.4192,-5.4382,-5.4414,-5.4533,-5.432,-5.4866,-5.4882,-5.4896,-5.5049,-5.5081,-5.5109,0,0,0,0,0,-5.3758,-5.3792,-5.4067,-5.3935,-5.3968,-5.3989,-5.4071,-5.407,-5.4119,-5.4154,-5.4156,-5.41,-5.4196,-5.4222,-5.4401,-5.4519,-5.4298,-5.431,-5.4876,-5.4889,-5.49,-5.5065,0,0,0,0,0,0,-5.3766,-5.3793,-5.4073,-5.4082,-5.3865,-5.3975,-5.3991,-5.4063,-5.414,-5.4145,-5.4053,-5.4041,-5.4201,-5.422,-5.424,-5.4515,-5.4279,-5.4292,-5.4299,-5.4886,-5.4895,-5.4904,0,0,0,0,0,0,-5.3774,-5.3801,-5.4078,-5.3989,-5.3988,-5.3962,-5.3976,-5.4126,-5.4142,-5.4035,-5.4027,-5.4047,-5.4171,-5.422,-5.4235,-5.4469,-5.4265,-5.4277,-5.4285,-5.429,-5.4894,-5.4901,0,0,0,0,0,0,-5.3785,-5.3808,-5.3987,-5.3986,-5.3985,-5.4089,-5.4093,-5.4268,-5.4066,-5.4033,-5.4047,-5.4038,-5.4173,-5.4187,-5.4232,-5.446,-5.4467,-5.4266,-5.4274,-5.4279,-5.4283,0,0,0,0,0,0,0,-5.3794,-5.3643,-5.4017,-5.3984,-5.3982,-5.4169,-5.4171,-5.4174,-5.4064,-5.4056,-5.4049,-5.4042,-5.4199,-5.4211,-5.4224,-5.4453,0,0,-5.4265,-5.427,0,0,0,0,0,0,0,0,-5.3633,-5.3641,-5.4017,-5.4019,-5.4021,-5.4169,-5.4171,-5.4173,-5.4062,-5.4056,-5.405,-5.4045,-5.4202,-5.4212,-5.4223,0,0,0,0,0,0,0,0,0,0,0,0,0,0,0,-5.4018,-5.4019,0,-5.4169,-5.4171,-5.4173,-5.4062,-5.4057,-5.4052,-5.4047,-5.4205,-5.4214,-5.4222,0,0,0,0,0,0,0,0,0,0,0,0,0,0,0,0,0,0,0,0,0,0,0,0,0,0,0,0,0,0,0,0,0,0,0,0,0,0,0,0,0,0,0,0,0,0,0,0,0,0,0,0,0,0,0,0,0,0,0,0,0,0,0,0,0,0,0,0,0]}],[{"header":{"parameterUnit":"kt","parameterCategory":2,"dx":1,"dy":1,"la1":30.253999710083008,"la2":30.299108505249023,"lo1":-89.0895004272461,"lo2":-89.04439544677734,"nx":28,"ny":28,"refTime":"2022-10-06T21:00:00:Z","depth":0,"parameterNumber":2,"parameterNumberName":"V-component_of_WINDS"},"data":[-11.2294,-11.2464,-11.2451,-11.2637,-11.2655,-11.2778,-11.2817,-11.2865,-11.2899,-11.3042,-11.312,-11.312,-11.3145,-11.3232,-11.3313,-11.331,-11.3346,-11.3417,-11.3401,-11.31,-11.3057,-11.3016,-11.2976,-11.3425,-11.3426,-11.3715,-11.3717,-11.3719,-11.2074,-11.2096,-11.2191,-11.2273,-11.2353,-11.2276,-11.2333,-11.2404,-11.2515,-11.2558,-11.2634,-11.2757,-11.2851,-11.2851,-11.2937,-11.3012,-11.2979,-11.3036,-11.303,-11.3035,-11.2713,-11.267,-11.3062,-11.3062,-11.3061,-11.3061,-11.3061,-11.3061,-11.167,-11.1773,-11.1815,-11.1917,-11.1953,-11.2007,-11.2101,-11.21,-11.219,-11.2281,-11.2243,-11.2367,-11.2404,-11.2499,-11.2526,-11.262,-11.2552,-11.2609,-11.2623,-11.2638,-11.2657,-11.2242,-11.2633,-11.2632,-11.2631,-11.263,-11.2629,0,-11.1369,-11.1351,-11.1441,-11.1527,-11.16,-11.1664,-11.1719,-11.1776,-11.1727,-11.1803,-11.1911,-11.197,-11.2084,-11.2182,-11.2258,-11.2273,-11.2197,-11.2188,-11.2226,-11.2247,-11.2256,-11.2253,-11.1728,-11.2176,-11.2172,-11.2169,-11.2167,-11.2166,-11.096,-11.1082,-11.1117,-11.1182,-11.1209,-11.1314,-11.1372,-11.1319,-11.1384,-11.1442,-11.1533,-11.163,-11.1705,-11.1878,-11.187,-11.1954,-11.1918,-11.2091,-11.193,-11.1945,-11.192,-11.1913,-11.1924,-11.2123,-11.2129,-11.2133,-11.2137,0,-11.073,-11.0706,-11.0888,-11.091,-11.0919,-11.1048,-11.1065,-11.1163,-11.115,-11.1283,-11.131,-11.1288,-11.1393,-11.1357,-11.1469,-11.1447,-11.1654,-11.1616,-11.164,-11.1631,-11.1782,-11.1768,-11.2279,-11.2342,-11.1877,-11.1881,-11.1885,0,-11.0371,-11.0532,-11.0485,-11.0592,-11.0768,-11.0711,-11.0886,-11.0891,-11.0923,-11.1027,-11.0937,-11.1036,-11.0974,-11.1068,-11.1035,-11.1197,-11.1218,-11.121,-11.1199,-11.1219,-11.122,-11.125,-11.1228,-11.1171,-11.1168,-11.1166,-11.1164,0,-11.0014,-11.0177,-11.0351,-11.0384,-11.0422,-11.0505,-11.0524,-11.0559,-11.0616,-11.0684,-11.072,-11.0802,-11.0848,-11.0912,-11.0869,-11.0761,-11.1067,-11.0909,-11.1059,-11.106,-11.1128,-11.1124,-11.1586,-11.1161,-11.116,-11.1159,-11.1158,0,-10.9719,-10.9793,-11.0049,-11.0078,-11.0123,-11.0237,-11.0316,-11.0405,-11.0448,-11.0435,-11.0488,-11.0422,-11.0562,-11.0409,-11.0599,-11.0471,-11.052,-11.0525,-11.0535,-11.0545,-11.0374,-11.0639,-11.1083,-11.1127,-11.0554,-11.0549,-11.0544,0,-10.9317,-10.9569,-10.9523,-10.9767,-10.9878,-10.9769,-10.9894,-10.9935,-10.9929,-11.002,-11.001,-11.0114,-10.9992,-11.002,-11.0119,-11.0113,-11.028,-11.0089,-11.0218,-11.0223,-11.021,-11.0618,-11.0693,-11.099,-11.048,-11.0486,-11.0491,0,-10.9002,-10.9049,-10.9096,-10.9131,-10.9178,-10.927,-10.9414,-10.9505,-10.9568,-10.9624,-10.9742,-10.9887,-10.98,-10.9846,-10.9801,-10.9907,-11.0165,-10.9799,-10.9799,-10.9866,-11.0444,-11.0514,-11.0565,-11.0111,-11.0119,-11.0125,-11.044,0,-10.8561,-10.8684,-10.881,-10.889,-10.8956,-10.9107,-10.9071,-10.9144,-10.9094,-10.9084,-10.9256,-10.9279,-10.937,-10.9417,-10.9369,-10.9622,-10.9574,-10.948,-10.9327,-10.9596,-10.9698,-10.974,-10.9178,-10.9173,-10.9169,-10.9166,0,0,-10.8183,-10.8358,-10.8301,-10.844,-10.8492,-10.8377,-10.8541,-10.8577,-10.8654,-10.8691,-10.8606,-10.8814,-10.8837,-10.9049,-10.913,-10.9167,-10.9208,-10.9116,-10.9468,-10.9503,-10.9534,-10.9644,-10.9689,-10.9159,-10.9157,-10.9156,-10.9154,0,-10.8014,-10.8044,-10.8209,-10.8245,-10.8296,-10.8277,-10.8316,-10.8345,-10.8346,-10.8515,-10.8415,-10.8514,-10.8682,-10.8719,-10.8759,-10.9089,-10.9007,-10.9119,-10.931,-10.943,-10.9469,-10.9504,-10.962,-10.9663,-10.9145,-10.9145,-10.9146,0,-10.7697,-10.772,-10.7796,-10.791,-10.7942,-10.8059,-10.789,-10.8021,-10.8106,-10.797,-10.814,-10.8147,-10.8193,-10.8399,-10.849,-10.8415,-10.8827,-10.869,-10.8714,-10.8723,-10.8837,-10.8884,-10.8927,-10.8372,-10.8369,-10.8367,0,0,-10.7556,-10.767,-10.7677,-10.7871,-10.7898,-10.7873,-10.7931,-10.7888,-10.7933,-10.7951,-10.796,-10.8005,-10.8101,-10.8166,-10.8255,-10.8487,-10.8491,-10.8597,-10.8633,-10.8663,-10.8689,-10.881,-10.8857,-10.8358,-10.8358,-10.8357,0,0,-10.7488,-10.7505,-10.7448,-10.7669,-10.7717,-10.7734,-10.7853,-10.7783,-10.7859,-10.7838,-10.7769,-10.7778,-10.7969,-10.7981,-10.7858,-10.8199,-10.8049,-10.8078,-10.8185,-10.8231,-10.8267,-10.826,-10.7686,0,0,0,0,0,-10.7297,-10.7502,-10.7451,-10.7482,-10.7625,-10.7764,-10.7781,-10.773,-10.7625,-10.772,-10.7715,-10.7624,-10.79,-10.7789,-10.782,-10.7958,-10.8235,-10.8257,-10.8277,-10.847,-10.8518,-10.8559,0,0,0,0,0,0,-10.7309,-10.7348,-10.7445,-10.7473,-10.7504,-10.7756,-10.7566,-10.7558,-10.7613,-10.7594,-10.7628,-10.7625,-10.7583,-10.777,-10.7799,-10.7931,-10.7676,-10.8243,-10.8262,-10.8278,-10.8487,-10.8526,-10.856,0,0,0,0,0,-10.7319,-10.735,-10.7593,-10.7469,-10.7497,-10.7479,-10.7558,-10.7549,-10.7591,-10.7585,-10.7579,-10.7548,-10.7588,-10.7609,-10.7787,-10.7919,-10.7656,-10.7667,-10.8255,-10.827,-10.8283,-10.8506,0,0,0,0,0,0,-10.7325,-10.7342,-10.7597,-10.7603,-10.7389,-10.7463,-10.7473,-10.7543,-10.7577,-10.7574,-10.75,-10.7484,-10.7594,-10.7609,-10.7626,-10.7918,-10.764,-10.7651,-10.7658,-10.8266,-10.8278,-10.8288,0,0,0,0,0,0,-10.7325,-10.7349,-10.76,-10.7501,-10.7495,-10.745,-10.7459,-10.7602,-10.7579,-10.749,-10.7478,-10.7493,-10.7569,-10.7611,-10.7623,-10.7848,-10.7627,-10.7638,-10.7645,-10.765,-10.8276,-10.8285,0,0,0,0,0,0,-10.7334,-10.7354,-10.7498,-10.7495,-10.7489,-10.7555,-10.7574,-10.7723,-10.7497,-10.749,-10.7475,-10.7465,-10.7573,-10.7584,-10.7622,-10.7843,-10.7847,-10.7627,-10.7635,-10.764,-10.7643,0,0,0,0,0,0,0,-10.7341,-10.7219,-10.756,-10.7489,-10.7484,-10.7661,-10.7663,-10.7665,-10.7495,-10.7486,-10.7477,-10.7469,-10.7566,-10.7578,-10.759,-10.7838,0,0,-10.7626,-10.7631,0,0,0,0,0,0,0,0,-10.7209,-10.7216,-10.756,-10.7561,-10.7563,-10.7662,-10.7663,-10.7664,-10.7493,-10.7486,-10.7479,-10.7472,-10.7569,-10.7579,-10.7588,0,0,0,0,0,0,0,0,0,0,0,0,0,0,0,-10.756,-10.7561,0,-10.7662,-10.7663,-10.7664,-10.7492,-10.7486,-10.748,-10.7475,-10.7572,-10.758,-10.7587,0,0,0,0,0,0,0,0,0,0,0,0,0,0,0,0,0,0,0,0,0,0,0,0,0,0,0,0,0,0,0,0,0,0,0,0,0,0,0,0,0,0,0,0,0,0,0,0,0,0,0,0,0,0,0,0,0,0,0,0,0,0,0,0,0,0,0,0,0]}]]]